�N����,����,����,����,����,�C��,���x,�~����,�S�V����,�ő�u�ԕ���,,,,,
,,,,,,,,,����,����,����,�N��,,
yyyy/mm/dd,hh:mm:ss,(16),16����,m/s,��,%,mm,KW/�u,(16),16����,m/s,Time,,
2020/5/1,1:00:00,9,��쐼,2.5,8.6,83.8,0,0,8,��,5.5,57,,
2020/5/1,2:00:00,9,��쐼,2.5,8.3,88.7,0,0,8,��,7,8,,
2020/5/1,3:00:00,13,���k��,1.6,6.9,93.9,0,0,8,��,5.2,5,,
2020/5/1,4:00:00,14,�k��,1.5,8.5,86.3,0,0,15,�k�k��,4.1,19,,
2020/5/1,5:00:00,3,���k��,0.8,6.2,93.2,0,0.01,5,���쓌,3.4,9,,
2020/5/1,6:00:00,16,�k,1.1,6.2,95.7,0,0.08,6,�쓌,4,27,,
2020/5/1,7:00:00,15,�k�k��,0.4,8.9,88.9,0,0.19,16,�k,2.9,11,,
2020/5/1,8:00:00,2,�k��,0.8,12.4,67.5,0,0.46,1,�k�k��,2.5,37,,
2020/5/1,9:00:00,5,���쓌,3.3,10.7,76.1,0,0.56,5,���쓌,4.5,55,,
2020/5/1,10:00:00,5,���쓌,2.2,10.5,78.6,0,0.43,5,���쓌,3.6,5,,
2020/5/1,11:00:00,4,��,1.1,13,67.5,0,0.57,3,���k��,3.7,24,,
2020/5/1,12:00:00,5,���쓌,3.2,14,60.7,0,1.01,5,���쓌,4.9,29,,
2020/5/1,13:00:00,6,�쓌,3.3,15.6,51.8,0,0.98,6,�쓌,6.2,49,,
2020/5/1,14:00:00,7,��쓌,4.5,12.2,63.7,0,0.62,7,��쓌,6.3,59,,
2020/5/1,15:00:00,7,��쓌,2.5,18.8,45.6,0,0.7,8,��,5.7,0,,
2020/5/1,16:00:00,12,��,5.2,19.5,38.5,0,0.52,11,���쐼,8.8,43,,
2020/5/1,17:00:00,10,�쐼,5.7,17.7,47,0,0.31,11,���쐼,8.6,45,,
2020/5/1,18:00:00,10,�쐼,3.1,15.4,55.5,0,0.11,10,�쐼,7.6,0,,
2020/5/1,19:00:00,10,�쐼,2.5,13.6,62.1,0,0.01,11,���쐼,5.5,18,,
2020/5/1,20:00:00,10,�쐼,1.4,10.4,81.4,0,0,10,�쐼,3.6,0,,
2020/5/1,21:00:00,10,�쐼,3.9,12.2,67.6,0,0,10,�쐼,6.4,52,,
2020/5/1,22:00:00,9,��쐼,2.2,11.3,71.3,0,0,10,�쐼,6.1,12,,
2020/5/1,23:00:00,8,��,1.6,9.1,79.7,0,0,9,��쐼,3.6,22,,
2020/5/1,0:00:00,9,��쐼,0.3,6.2,89.7,0,0,8,��,2.5,14,,
2020/5/2,1:00:00,12,��,0.6,2.6,94.8,0,0,14,�k��,2.1,20,,
2020/5/2,2:00:00,14,�k��,0.6,2.1,97.5,0,0,7,��쓌,2.7,50,,
2020/5/2,3:00:00,13,���k��,1.3,3.2,96.1,0,0,15,�k�k��,4.2,20,,
2020/5/2,4:00:00,13,���k��,0.9,3.4,98.3,0,0,13,���k��,3.3,25,,
2020/5/2,5:00:00,16,�k,1.3,4.8,97.6,0,0.03,16,�k,2.9,59,,
2020/5/2,6:00:00,9,��쐼,1.2,8.7,87.1,0,0.16,1,�k�k��,2.9,1,,
2020/5/2,7:00:00,9,��쐼,1.9,13.2,73.7,0,0.26,9,��쐼,4.2,51,,
2020/5/2,8:00:00,6,�쓌,1.6,8.2,86.7,0,0.08,4,��,5.1,29,,
2020/5/2,9:00:00,9,��쐼,1.3,10.7,90.4,0,0.08,6,�쓌,4.2,1,,
2020/5/2,10:00:00,8,��,2.3,10.2,89.5,0,0.12,7,��쓌,4.7,51,,
2020/5/2,11:00:00,10,�쐼,4.4,15.8,79.2,0,0.47,9,��쐼,8.7,57,,
2020/5/2,12:00:00,9,��쐼,5.3,17,66.5,0,0.84,9,��쐼,10,41,,
2020/5/2,13:00:00,8,��,6.6,15.6,67.3,0,0.94,8,��,11.6,51,,
2020/5/2,14:00:00,7,��쓌,3.7,18.8,59.8,0,0.86,9,��쐼,9.2,13,,
2020/5/2,15:00:00,8,��,5.2,15.3,64.6,0,0.73,8,��,8.7,35,,
2020/5/2,16:00:00,8,��,2.5,18.3,62.5,0,0.49,8,��,8.3,6,,
2020/5/2,17:00:00,8,��,1.9,20.1,54.6,0,0.33,10,�쐼,4,40,,
2020/5/2,18:00:00,5,���쓌,1,15.5,69.5,0,0.13,7,��쓌,2.5,15,,
2020/5/2,19:00:00,12,��,2,10.8,84.1,0,0.01,13,���k��,2.5,59,,
2020/5/2,20:00:00,13,���k��,2,9,89.8,0,0,14,�k��,4.7,19,,
2020/5/2,21:00:00,10,�쐼,2.4,6.5,95.6,0,0,10,�쐼,3.5,58,,
2020/5/2,22:00:00,10,�쐼,1.5,5.5,95.7,0,0,11,���쐼,4,53,,
2020/5/2,23:00:00,12,��,1.9,6.5,98.4,0,0,10,�쐼,3.4,30,,
2020/5/2,0:00:00,12,��,1.4,6.5,96.6,0,0,13,���k��,3.8,28,,
2020/5/3,1:00:00,10,�쐼,1.6,8.1,91.2,0,0,11,���쐼,4,38,,
2020/5/3,2:00:00,10,�쐼,2.5,6.7,94.8,0,0,10,�쐼,4.4,21,,
2020/5/3,3:00:00,10,�쐼,3.5,6.7,92.1,0,0,10,�쐼,4.8,19,,
2020/5/3,4:00:00,16,�k,0.9,6.5,94.4,0,0,10,�쐼,3.8,0,,
2020/5/3,5:00:00,9,��쐼,90.9,0,0.02,,,,,,,,
2020/5/3,6:00:00,10,�쐼,0.7,11.3,88,0,0.08,10,�쐼,3.1,25,,
2020/5/3,7:00:00,10,�쐼,1,14.4,80.7,0,0.16,13,���k��,2.2,28,,
2020/5/3,8:00:00,5,���쓌,2.1,16.7,64.7,0,0.43,6,�쓌,3.2,26,,
2020/5/3,9:00:00,3,���k��,2.5,21,50.4,0,0.61,4,��,5,37,,
2020/5/3,10:00:00,5,���쓌,2.8,19.5,56.1,0,0.68,3,���k��,5.2,26,,
2020/5/3,11:00:00,7,��쓌,1.7,19.6,52.5,0,0.59,6,�쓌,4.7,28,,
2020/5/3,12:00:00,6,�쓌,1.5,18.8,56.3,0,0.42,7,��쓌,4.2,31,,
2020/5/3,13:00:00,5,���쓌,1.9,20.9,49.1,0,0.45,5,���쓌,3.8,53,,
2020/5/3,14:00:00,6,�쓌,2.3,19.2,56.4,0,0.33,6,�쓌,5,9,,
2020/5/3,15:00:00,11,���쐼,8.8,24.9,45,0,0.25,11,���쐼,12.8,59,,
2020/5/3,16:00:00,11,���쐼,7.6,24.1,45.3,0,0.19,12,��,13,24,,
2020/5/3,17:00:00,11,���쐼,6.5,24.4,41.6,0,0.13,11,���쐼,12.5,1,,
2020/5/3,18:00:00,11,���쐼,4.2,23.4,45.3,0,0.11,11,���쐼,10.2,14,,
2020/5/3,19:00:00,11,���쐼,3.5,22.3,48.6,0,0.01,10,�쐼,6.5,19,,
2020/5/3,20:00:00,8,��,1.8,20.9,52.2,0,0,11,���쐼,5.4,0,,
2020/5/3,21:00:00,10,�쐼,2.9,20,55.4,0,0,9,��쐼,4.7,36,,
2020/5/3,22:00:00,2,�k��,1.6,14.2,71.8,0,0,11,���쐼,7.9,13,,
2020/5/3,23:00:00,2,�k��,4.3,11.6,79.6,0,0,3,���k��,7.6,36,,
2020/5/3,0:00:00,2,�k��,4.8,11.2,83.4,0,0,3,���k��,8.5,35,,
2020/5/4,1:00:00,2,�k��,3.2,11.3,83.7,0,0,2,�k��,7.3,16,,
2020/5/4,2:00:00,1,�k�k��,3.2,10.9,84.7,0,0,2,�k��,6.5,5,,
2020/5/4,3:00:00,2,�k��,2.2,8.6,91.6,0,0,1,�k�k��,6.3,3,,
2020/5/4,4:00:00,2,�k��,3.1,8.2,96.3,0,0,2,�k��,4.7,55,,
2020/5/4,5:00:00,2,�k��,2.3,8.9,98.9,0,0.01,2,�k��,4.6,0,,
2020/5/4,6:00:00,2,�k��,1.6,8.6,99.3,0,0.04,2,�k��,2.9,59,,
2020/5/4,7:00:00,4,��,2.7,8.1,99.4,0,0.09,4,��,4,51,,
2020/5/4,8:00:00,1,�k�k��,2.6,10.2,98,0,0.28,16,�k,4.4,46,,
2020/5/4,9:00:00,2,�k��,4.6,11.8,80.2,0,0.55,3,���k��,6.8,59,,
2020/5/4,10:00:00,1,�k�k��,3.2,11.4,82.4,0,0.57,2,�k��,8.4,14,,
2020/5/4,11:00:00,4,��,5.5,9.7,86.9,0,0.53,4,��,7.2,56,,
2020/5/4,12:00:00,5,���쓌,4.9,9.2,81.4,0,0.68,5,���쓌,6.4,51,,
2020/5/4,13:00:00,7,��쓌,2,9.4,91.7,0,0.37,5,���쓌,5.4,4,,
2020/5/4,14:00:00,6,�쓌,3.3,9.9,89.1,0,0.47,5,���쓌,4.9,53,,
2020/5/4,15:00:00,2,�k��,2.3,11.7,89.1,0,0.24,5,���쓌,4,2,,
2020/5/4,16:00:00,6,�쓌,1.9,12.7,80.7,0,0.24,5,���쓌,4.9,59,,
2020/5/4,17:00:00,5,���쓌,2.1,7.4,94.8,0,0.21,5,���쓌,5.3,2,,
2020/5/4,18:00:00,3,���k��,1.7,8.6,94.5,0,0.04,2,�k��,3,28,,
2020/5/4,19:00:00,1,�k�k��,0.5,8,94.6,0,0.01,3,���k��,2.5,17,,
2020/5/4,20:00:00,1,�k�k��,0.4,8.1,94.7,0,0,13,���k��,1.7,15,,
2020/5/4,21:00:00,5,���쓌,3.1,9.7,91.8,0,0,5,���쓌,4.2,57,,
2020/5/4,22:00:00,4,��,0.5,8.6,91.9,0,0,5,���쓌,3.2,0,,
2020/5/4,23:00:00,2,�k��,0.6,8.8,94.8,0,0,12,��,1.7,20,,
2020/5/4,0:00:00,8.5,��,96.6,0.5,0,,,,,,,,
2020/5/5,1:00:00,2,�k��,2.3,7.6,98.2,0,0,2,�k��,3.2,47,,
2020/5/5,2:00:00,2,�k��,2.3,7.1,98.3,0,0,2,�k��,3.8,1,,
2020/5/5,3:00:00,3,���k��,2,9,94,0,0,1,�k�k��,4.7,5,,
2020/5/5,4:00:00,14,�k��,3.3,9.9,98.5,0,0,14,�k��,5.5,53,,
2020/5/5,5:00:00,12,��,4,11,98.8,0,0.03,11,���쐼,5.4,53,,
2020/5/5,6:00:00,15,�k�k��,5.1,12.2,64.2,0,0.2,15,�k�k��,9.4,43,,
2020/5/5,7:00:00,15,�k�k��,5.3,12.7,56.9,0,0.43,15,�k�k��,10.7,2,,
2020/5/5,8:00:00,15,�k�k��,5.1,13.5,52.3,0,0.63,15,�k�k��,10.3,37,,
2020/5/5,9:00:00,15,�k�k��,6.3,14.6,44,0,0.81,8,��,11.3,53,,
2020/5/5,10:00:00,15,�k�k��,5.3,15.9,35.9,0,0.96,14,�k��,11.1,7,,
2020/5/5,11:00:00,14,�k��,5.5,17.5,30.7,0,1.06,13,���k��,10.8,48,,
2020/5/5,12:00:00,15,�k�k��,5.1,17.9,28.8,0,1.09,15,�k�k��,12,25,,
2020/5/5,13:00:00,7,��쓌,4.6,14.8,43.5,0,1.03,7,��쓌,9.5,39,,
2020/5/5,14:00:00,6,�쓌,5.7,11.2,57.8,0,0.91,6,�쓌,9.2,55,,
2020/5/5,15:00:00,5,���쓌,4.1,11,67.3,0,0.75,6,�쓌,8.2,20,,
2020/5/5,16:00:00,7,��쓌,4.8,10,69.1,0,0.57,7,��쓌,8.8,52,,
2020/5/5,17:00:00,7,��쓌,3.3,9.2,72.1,0,0.38,7,��쓌,7.6,4,,
2020/5/5,18:00:00,9,��쐼,2.2,7.5,78.6,0,0.16,7,��쓌,7.3,1,,
2020/5/5,19:00:00,10,�쐼,1,5.8,81.5,0,0.02,8,��,4,11,,
2020/5/5,20:00:00,2.9,�k��,92,0,0,,,,,,,,
2020/5/5,21:00:00,2.8,�k��,96.9,0,0,,,,,,,,
2020/5/5,22:00:00,16,�É�,0.2,2.1,98.5,0,0,12,��,2.3,27,,
2020/5/5,23:00:00,2,�k��,0.6,1.8,95,0,0,1,�k�k��,9.1,2,,
2020/5/5,0:00:00,13,���k��,0.8,1.1,98.7,0,0,16,�k,1.7,26,,
2020/5/6,1:00:00,13,���k��,1,1.5,100,0,0,12,��,1.9,48,,
2020/5/6,2:00:00,13,���k��,1.4,-0.1,100,0,0,13,���k��,2.1,53,,
2020/5/6,3:00:00,13,���k��,1,2.1,100,0,0,13,���k��,1.9,1,,
2020/5/6,4:00:00,12,��,0.9,3.1,98.9,0,0,13,���k��,1.3,59,,
2020/5/6,5:00:00,12,��,0.5,3.9,98,0,0.01,12,��,2.2,44,,
2020/5/6,6:00:00,5.6,���쓌,92.7,0,0.04,,,,,,,,
2020/5/6,7:00:00,3,���k��,2.4,8.4,83.1,0,0.3,3,���k��,3.9,46,,
2020/5/6,8:00:00,5,���쓌,2.9,8,83.2,0,0.53,5,���쓌,4.9,19,,
2020/5/6,9:00:00,6,�쓌,3,9.2,75.4,0,0.74,5,���쓌,5.6,29,,
2020/5/6,10:00:00,6,�쓌,3.9,10,72.8,0,0.85,5,���쓌,6.6,35,,
2020/5/6,11:00:00,5,���쓌,4.7,10.1,69.8,0,0.89,5,���쓌,7.4,54,,
2020/5/6,12:00:00,5,���쓌,4.8,9.5,72.6,0,0.79,5,���쓌,7.6,12,,
2020/5/6,13:00:00,5,���쓌,5,7.5,79.5,0,0.36,5,���쓌,7.4,2,,
2020/5/6,14:00:00,5,���쓌,4.1,7.6,81.4,0,0.26,5,���쓌,7.2,49,,
2020/5/6,15:00:00,5,���쓌,3.6,6.9,83.8,0,0.22,4,��,7.1,20,,
2020/5/6,16:00:00,4,��,2.5,6.6,81.6,0,0.13,5,���쓌,5.3,36,,
2020/5/6,17:00:00,6,�쓌,3.5,6,81.5,0,0.07,6,�쓌,5.4,34,,
2020/5/6,18:00:00,4,��,4.6,5.6,86,0,0.03,5,���쓌,6.7,36,,
2020/5/6,19:00:00,5,���쓌,1.2,4.8,85.1,0,0.01,5,���쓌,6.8,6,,
2020/5/6,20:00:00,2,�k��,1.3,3.9,93.1,0.5,0,4,��,4.1,16,,
2020/5/6,21:00:00,16,�k,1,3.7,96.5,1,0,16,�k,2.6,46,,
2020/5/6,22:00:00,16,�k,1.7,3.5,96.7,0,0,15,�k�k��,2.6,59,,
2020/5/6,23:00:00,14,�k��,1.6,3.3,96.3,0.5,0,15,�k�k��,3,36,,
2020/5/6,0:00:00,15,�k�k��,1.5,3.3,96.4,0,0,14,�k��,3.1,21,,
2020/5/7,1:00:00,15,�k�k��,1.1,3.3,97,0,0,14,�k��,2.7,17,,
2020/5/7,2:00:00,1,�k�k��,1.2,3.2,96.5,0,0,16,�k,2.3,40,,
2020/5/7,3:00:00,15,�k�k��,0.9,3.2,96.4,0,0,15,�k�k��,2.2,52,,
2020/5/7,4:00:00,15,�k�k��,1.3,3.2,96.7,0,0,15,�k�k��,2.5,56,,
2020/5/7,5:00:00,14,�k��,0.6,3.5,95.7,0,0.01,14,�k��,2.4,4,,
2020/5/7,6:00:00,16,�k,1.3,4.2,92.4,0,0.07,11,���쐼,2.2,50,,
2020/5/7,7:00:00,1,�k�k��,2.1,5.3,84.7,0,0.19,1,�k�k��,3.6,51,,
2020/5/7,8:00:00,3,���k��,1.5,6.2,86.9,0,0.31,3,���k��,3.5,22,,
2020/5/7,9:00:00,4,��,2.2,7.6,84.4,0,0.42,5,���쓌,4.3,26,,
2020/5/7,10:00:00,4,��,3.8,8,76.7,0,0.79,5,���쓌,6.1,40,,
2020/5/7,11:00:00,4,��,4.2,8.3,71.5,0,0.82,4,��,7.1,34,,
2020/5/7,12:00:00,4,��,4,7.8,64.1,0,0.99,5,���쓌,6.8,49,,
2020/5/7,13:00:00,1,�k�k��,3.6,7.6,69.5,0,0.93,5,���쓌,5.6,33,,
2020/5/7,14:00:00,6,�쓌,3.5,7.8,64.5,0,0.94,6,�쓌,5.8,57,,
2020/5/7,15:00:00,6,�쓌,3.4,7.4,70.1,0,0.75,5,���쓌,5.8,55,,
2020/5/7,16:00:00,7,��쓌,3.1,7.5,70.1,0,0.57,6,�쓌,6.5,39,,
2020/5/7,17:00:00,8,��,2.5,5.7,75.1,0,0.3,8,��,5.3,39,,
2020/5/7,18:00:00,7,��쓌,1.5,6,77.5,0,0.08,8,��,3.6,0,,
2020/5/7,19:00:00,8,��,1,5.5,83.7,0,0.01,9,��쐼,2.5,22,,
2020/5/7,20:00:00,16,�É�,0.2,5,87.9,0,0,5,���쓌,2,18,,
2020/5/7,21:00:00,1,�k�k��,0.4,4.2,92.1,0,0,15,�k�k��,2.5,4,,
2020/5/7,22:00:00,12,��,0.3,0.2,97,0,0,3,���k��,1,12,,
2020/5/7,23:00:00,11,���쐼,1.8,0.7,100,0,0,12,��,2.5,37,,
2020/5/7,0:00:00,12,��,1.2,-0.2,100,0,0,12,��,2.5,24,,
2020/5/8,1:00:00,12,��,2.4,-1.4,100,0,0,12,��,2.7,58,,
2020/5/8,2:00:00,12,��,1.5,-1.3,100,0,0,13,���k��,2.6,50,,
2020/5/8,3:00:00,12,��,0.4,-1.6,100,0,0,12,��,2.5,35,,
2020/5/8,4:00:00,13,���k��,1.9,-1.9,100,0,0,13,���k��,3.2,45,,
2020/5/8,5:00:00,-1.1,#N/A,100,0,0.05,,,,,,,,
2020/5/8,6:00:00,12,��,1.2,3.5,97.8,0,0.23,13,���k��,2.8,44,,
2020/5/8,7:00:00,14,�k��,1.5,7.7,78.7,0,0.43,12,��,3.7,4,,
2020/5/8,8:00:00,11.8,���쐼,66.2,0,0.64,,,,,,,,
2020/5/8,9:00:00,7,��쓌,1.9,11.9,70.5,0,0.81,6,�쓌,5,17,,
2020/5/8,10:00:00,7,��쓌,2.5,12.3,57.1,0,0.95,7,��쓌,4.5,43,,
2020/5/8,11:00:00,6,�쓌,2.5,13.7,55.8,0,1.05,7,��쓌,5.5,2,,
2020/5/8,12:00:00,4,��,2.1,15.5,44.9,0,1.08,4,��,4,15,,
2020/5/8,13:00:00,5,���쓌,2.5,14.2,57.5,0,1.03,5,���쓌,3.8,59,,
2020/5/8,14:00:00,6,�쓌,1.5,19.9,45.6,0,0.92,5,���쓌,3.6,0,,
2020/5/8,15:00:00,6,�쓌,2.3,17.1,53.6,0,0.75,6,�쓌,5.5,28,,
2020/5/8,16:00:00,5,���쓌,1.3,22.4,26.2,0,0.58,13,���k��,6.8,59,,
2020/5/8,17:00:00,11,���쐼,4.5,20.5,32.8,0,0.35,13,���k��,10.3,34,,
2020/5/8,18:00:00,11,���쐼,3.7,18.1,36.1,0,0.12,12,��,8.7,14,,
2020/5/8,19:00:00,12,��,1.5,15.4,44.6,0,0.01,12,��,4.4,2,,
2020/5/8,20:00:00,12,��,2.4,14.6,49.3,0,0,12,��,3.6,55,,
2020/5/8,21:00:00,16,�É�,0.2,11.3,60.9,0,0,12,��,3.2,0,,
2020/5/8,22:00:00,13,���k��,1.2,8.4,78.8,0,0,1,�k�k��,2.4,2,,
2020/5/8,23:00:00,14,�k��,0.7,9.9,72.8,0,0,12,��,2.9,40,,
2020/5/8,0:00:00,12,��,1.5,8.3,79.9,0,0,12,��,2.9,39,,
2020/5/9,1:00:00,10,�쐼,7.1,16.1,27.6,0,0,11,���쐼,11.7,51,,
2020/5/9,2:00:00,10,�쐼,3.1,14.9,29.6,0,0,9,��쐼,10.8,14,,
2020/5/9,3:00:00,10,�쐼,1.7,14,32.9,0,0,9,��쐼,7.7,8,,
2020/5/9,4:00:00,10,�쐼,2.5,13,36.8,0,0,10,�쐼,4.2,55,,
2020/5/9,5:00:00,10,�쐼,3.4,12.3,46.4,0,0.02,10,�쐼,5.3,37,,
2020/5/9,6:00:00,10,�쐼,1.3,13.1,60.1,0,0.08,10,�쐼,4.1,1,,
2020/5/9,7:00:00,1,�k�k��,2.1,15.9,40.3,0,0.24,5,���쓌,3.4,28,,
2020/5/9,8:00:00,2,�k��,1.5,17.5,32,0,0.63,3,���k��,4.6,28,,
2020/5/9,9:00:00,5,���쓌,3.8,16.7,37.8,0,0.43,4,��,5.7,57,,
2020/5/9,10:00:00,5,���쓌,3.4,16.5,40.5,0,0.65,5,���쓌,7,37,,
2020/5/9,11:00:00,4,��,2.9,19.9,28.9,0,0.93,5,���쓌,5.3,40,,
2020/5/9,12:00:00,4,��,2.8,20.7,28.1,0,1.15,4,��,5.7,35,,
2020/5/9,13:00:00,4,��,2,20.7,32.5,0,1.06,5,���쓌,4.5,18,,
2020/5/9,14:00:00,4,��,3.4,17.2,45.2,0,0.41,4,��,4.9,55,,
2020/5/9,15:00:00,16,�k,2,16.7,45,0,0.29,4,��,4.7,3,,
2020/5/9,16:00:00,2,�k��,1.6,18.6,44.1,0,0.35,2,�k��,2.5,47,,
2020/5/9,17:00:00,16,�É�,0.1,18.3,55.8,0,0.32,4,��,2.4,11,,
2020/5/9,18:00:00,11,���쐼,2.5,17.7,35.9,0,0.12,10,�쐼,5,26,,
2020/5/9,19:00:00,12,��,2.5,16.8,40.3,0,0.02,11,���쐼,4,7,,
2020/5/9,20:00:00,13,���k��,2,16,42.7,0,0,12,��,3.7,29,,
2020/5/9,21:00:00,13,���k��,3.8,13.4,40.6,0,0,13,���k��,4.7,57,,
2020/5/9,22:00:00,1,�k�k��,2.1,13.7,34.3,0,0,3,���k��,4.9,34,,
2020/5/9,23:00:00,1,�k�k��,0.9,10.8,63.7,0,0,4,��,3.7,21,,
2020/5/9,0:00:00,12,��,1.4,10.5,59.1,0,0,3,���k��,2.7,9,,
2020/5/10,1:00:00,14,�k��,0.8,9.8,67.8,0,0,12,��,2.2,59,,
2020/5/10,2:00:00,12,��,0.8,10.2,68.1,0,0,12,��,2.8,41,,
2020/5/10,3:00:00,3,���k��,4.8,11.4,66.1,0,0,2,�k��,6.7,59,,
2020/5/10,4:00:00,3,���k��,1.3,11.2,66.3,0,0,3,���k��,6,13,,
2020/5/10,5:00:00,9.8,��쐼,77.9,0,0.01,,,,,,,,
2020/5/10,6:00:00,12,��,1,10.7,76.7,0,0.05,7,��쓌,7.9,39,,
2020/5/10,7:00:00,15,�k�k��,0.7,12.2,63.4,0,0.13,13,���k��,2.5,5,,
2020/5/10,8:00:00,2,�k��,1.3,12.3,72.1,0,0.18,1,�k�k��,3.2,10,,
2020/5/10,9:00:00,2,�k��,1.9,12.3,67.3,0,0.18,1,�k�k��,2.9,35,,
2020/5/10,10:00:00,15,�k�k��,1.4,12.3,69.3,0,0.16,1,�k�k��,2.8,9,,
2020/5/10,11:00:00,15,�k�k��,2,12.5,70.1,0,0.19,1,�k�k��,4,32,,
2020/5/10,12:00:00,2,�k��,1.7,12.7,70.7,0,0.18,3,���k��,4.8,48,,
2020/5/10,13:00:00,3,���k��,4,10.2,80.7,0,0.2,4,��,7.4,55,,
2020/5/10,14:00:00,3,���k��,3.6,8.7,86.1,0,0.18,2,�k��,7.2,45,,
2020/5/10,15:00:00,2,�k��,2.6,8.6,86.8,0,0.16,4,��,5.7,5,,
2020/5/10,16:00:00,2,�k��,2.2,7.6,93,1,0.07,3,���k��,4.6,33,,
2020/5/10,17:00:00,1,�k�k��,1.2,7.3,96.3,2,0.03,2,�k��,4.1,10,,
2020/5/10,18:00:00,1,�k�k��,1.1,7.1,97.9,0.5,0.02,1,�k�k��,3.7,16,,
2020/5/10,19:00:00,16,�É�,0.2,7.1,98.6,0.5,0,1,�k�k��,2.7,20,,
2020/5/10,20:00:00,11,���쐼,1.5,7.2,99,1,0,11,���쐼,2.3,59,,
2020/5/10,21:00:00,12,��,0.5,7.3,99.2,0.5,0,11,���쐼,2.2,11,,
2020/5/10,22:00:00,11,���쐼,1.1,7.3,99.3,0,0,10,�쐼,2.5,39,,
2020/5/10,23:00:00,9,��쐼,1.1,7.3,99.3,0,0,10,�쐼,2.2,31,,
2020/5/10,0:00:00,1,�k�k��,1,7.5,99.3,0,0,1,�k�k��,1.9,55,,
2020/5/11,1:00:00,1,�k�k��,1.5,7.4,99.3,0,0,1,�k�k��,2.5,59,,
2020/5/11,2:00:00,2,�k��,1.7,7.5,99.6,0,0,2,�k��,3,37,,
2020/5/11,3:00:00,11,���쐼,0.4,7.5,99.7,0,0,13,���k��,8.5,46,,
2020/5/11,4:00:00,16,�É�,0.2,7.4,99.7,0,0,9,��쐼,7.4,16,,
2020/5/11,5:00:00,7.4,��쓌,99.8,0,0.02,,,,,,,,
2020/5/11,6:00:00,6,�쓌,1,7.8,100,0,0.09,4,��,2.5,22,,
2020/5/11,7:00:00,9,��쐼,1.2,9,100,0,0.26,9,��쐼,2.4,56,,
2020/5/11,8:00:00,7,��쓌,1.6,11.7,98.6,0,0.46,10,�쐼,3.3,4,,
2020/5/11,9:00:00,6,�쓌,1.9,12.9,86.1,0,0.81,8,��,3.4,11,,
2020/5/11,10:00:00,5,���쓌,1.6,16.2,66.6,0,0.95,5,���쓌,3.2,7,,
2020/5/11,11:00:00,6,�쓌,2.6,17.1,63.2,0,1.05,5,���쓌,4.9,8,,
2020/5/11,12:00:00,6,�쓌,3.5,16.8,61.1,0,1.07,5,���쓌,5.6,34,,
2020/5/11,13:00:00,7,��쓌,3,19.3,52.1,0,1.02,6,�쓌,5.5,3,,
2020/5/11,14:00:00,6,�쓌,2.4,15.7,63.4,0,0.77,7,��쓌,6.1,12,,
2020/5/11,15:00:00,12,��,6.8,19.7,53.7,0,0.45,13,���k��,11.5,44,,
2020/5/11,16:00:00,12,��,7.4,18.3,58.2,0,0.59,12,��,12.6,44,,
2020/5/11,17:00:00,11,���쐼,5.3,16.7,67.4,0,0.34,12,��,11.5,9,,
2020/5/11,18:00:00,11,���쐼,5,14.4,78,0,0.1,11,���쐼,9,53,,
2020/5/11,19:00:00,14,�k��,2.5,13.1,81.5,0,0.01,11,���쐼,7.6,27,,
2020/5/11,20:00:00,16,�k,1.5,13.2,79.5,0,0,12,��,7.7,29,,
2020/5/11,21:00:00,10.6,�쐼,87.1,0,0,,,,,,,,
2020/5/11,22:00:00,12,��,1.8,12.6,76.9,0,0,10,�쐼,4.4,40,,
2020/5/11,23:00:00,10.9,�쐼,83.2,0,0,,,,,,,,
2020/5/11,0:00:00,11,���쐼,4.2,12.9,66.4,0,0,11,���쐼,6.5,42,,
2020/5/12,1:00:00,1,�k�k��,2,10.8,76.3,0,0,11,���쐼,7.3,35,,
2020/5/12,2:00:00,4,��,2.4,6.2,96.7,0,0,1,�k�k��,4.9,37,,
2020/5/12,3:00:00,4,��,2.3,7.2,99.1,0,0,3,���k��,4.7,46,,
2020/5/12,4:00:00,3,���k��,2.6,6.6,99.7,0,0,3,���k��,4.9,45,,
2020/5/12,5:00:00,1,�k�k��,0.5,7,100,0,0.03,1,�k�k��,3.1,27,,
2020/5/12,6:00:00,1,�k�k��,0.5,7.8,100,0,0.16,1,�k�k��,3.5,12,,
2020/5/12,7:00:00,14,�k��,0.3,10.8,91.6,0,0.42,5,���쓌,2.1,39,,
2020/5/12,8:00:00,5,���쓌,1.9,12.8,76.2,0,0.6,5,���쓌,4,43,,
2020/5/12,9:00:00,4,��,2.8,12.6,73.3,0,0.68,3,���k��,4.3,49,,
2020/5/12,10:00:00,4,��,2.7,12.5,74.7,0,0.52,4,��,3.9,6,,
2020/5/12,11:00:00,5,���쓌,3.6,11.2,75.5,0,0.55,6,�쓌,5,49,,
2020/5/12,12:00:00,2,�k��,2.7,13.6,73.4,0,0.44,3,���k��,4.2,51,,
2020/5/12,13:00:00,7,��쓌,1.9,18.6,50.9,0,0.89,7,��쓌,5.1,48,,
2020/5/12,14:00:00,6,�쓌,2.6,16,55.6,0,0.77,6,�쓌,5,18,,
2020/5/12,15:00:00,7,��쓌,2,16.3,57.3,0,0.58,5,���쓌,4.1,8,,
2020/5/12,16:00:00,8,��,4.9,14.3,55.1,0,0.53,8,��,10.3,33,,
2020/5/12,17:00:00,8,��,4,13.2,59.7,0,0.39,8,��,9.5,31,,
2020/5/12,18:00:00,6,�쓌,5.4,13.6,58.9,0,0.17,4,��,10.5,47,,
2020/5/12,19:00:00,7,��쓌,5.5,13.4,61.1,0,0.02,7,��쓌,10.4,18,,
2020/5/12,20:00:00,8,��,5,12.5,70.2,0,0,8,��,9.8,5,,
2020/5/12,21:00:00,6,�쓌,2.4,10.3,84.2,0,0,8,��,9.1,3,,
2020/5/12,22:00:00,2,�k��,1.8,8.4,92.1,0,0,5,���쓌,5.3,35,,
2020/5/12,23:00:00,3,���k��,1.9,8.3,95.2,0,0,3,���k��,4.3,35,,
2020/5/12,0:00:00,3,���k��,4.9,8.9,92.5,0,0,3,���k��,6.7,52,,
2020/5/13,1:00:00,1,�k�k��,3,8.7,95.3,0,0,2,�k��,8.2,37,,
2020/5/13,2:00:00,1,�k�k��,2.1,8.9,96.2,2,0,3,���k��,7.6,23,,
2020/5/13,3:00:00,3,���k��,3.6,8.3,97.5,0,0,3,���k��,6.4,33,,
2020/5/13,4:00:00,2,�k��,2.9,8.8,99.1,0,0,2,�k��,6,12,,
2020/5/13,5:00:00,2,�k��,1.5,8,99.4,0,0.01,4,��,5.4,8,,
2020/5/13,6:00:00,2,�k��,1.5,8.7,99.8,0.5,0.02,1,�k�k��,3.7,35,,
2020/5/13,7:00:00,2,�k��,2.7,9.3,99.7,0,0.08,3,���k��,4.2,57,,
2020/5/13,8:00:00,2,�k��,3.7,9.6,99.6,0,0.15,2,�k��,6.4,45,,
2020/5/13,9:00:00,2,�k��,3.1,9.8,99.4,0,0.19,2,�k��,6.7,40,,
2020/5/13,10:00:00,4,��,3.6,9.8,99,0,0.22,3,���k��,5.2,47,,
2020/5/13,11:00:00,4,��,3.7,10.5,97.5,0,0.36,4,��,5.5,1,,
2020/5/13,12:00:00,4,��,2.5,9.6,97,0,0.4,4,��,5.5,1,,
2020/5/13,13:00:00,4,��,2.6,10,94.7,0,0.44,5,���쓌,5.1,50,,
2020/5/13,14:00:00,8,��,2.7,8.1,95.7,0,0.28,8,��,4.6,56,,
2020/5/13,15:00:00,8,��,1.8,9.1,96.7,0,0.16,7,��쓌,4.8,21,,
2020/5/13,16:00:00,6,�쓌,1.8,9.6,94.4,0,0.23,6,�쓌,3.8,24,,
2020/5/13,17:00:00,9,��쐼,0.6,9.7,93.2,0,0.14,7,��쓌,3,0,,
2020/5/13,18:00:00,13,���k��,2.1,12.1,81.8,0,0.08,11,���쐼,5.6,44,,
2020/5/13,19:00:00,11,���쐼,3.2,11.2,81.7,0,0.03,11,���쐼,5.9,35,,
2020/5/13,20:00:00,11,���쐼,5.4,11.6,76.9,0,0,11,���쐼,8.3,57,,
2020/5/13,21:00:00,10,�쐼,3.3,10,80.4,0,0,10,�쐼,8.5,17,,
2020/5/13,22:00:00,10,�쐼,2.9,9,77.6,0,0,11,���쐼,4.5,19,,
2020/5/13,23:00:00,13,���k��,3.3,9.1,79.3,0,0,15,�k�k��,7.5,15,,
2020/5/13,0:00:00,16,�É�,0,4.1,84.4,0,0,13,���k��,8,35,,
2020/5/14,1:00:00,12,��,1.7,2.7,78.6,0,0,12,��,2.5,56,,
2020/5/14,2:00:00,12,��,0.9,1.3,93.1,0,0,13,���k��,4.1,23,,
2020/5/14,3:00:00,12,��,2,1.6,97.9,0,0,11,���쐼,3.6,56,,
2020/5/14,4:00:00,13,���k��,1.1,1.5,93.6,0,0,13,���k��,3.1,19,,
2020/5/14,5:00:00,12,��,2,3,94.3,0,0.06,12,��,2.8,30,,
2020/5/14,6:00:00,12,��,1.4,9.2,84.1,0,0.21,13,���k��,3.6,8,,
2020/5/14,7:00:00,11,���쐼,4.1,13.6,58.8,0,0.47,12,��,7,41,,
2020/5/14,8:00:00,13,���k��,3.2,15.2,39.4,0,0.65,13,���k��,6.9,42,,
2020/5/14,9:00:00,15,�k�k��,3.1,15.9,39,0,0.5,14,�k��,8.4,8,,
2020/5/14,10:00:00,14,�k��,4.6,16.2,42.3,0,0.76,14,�k��,11.2,39,,
2020/5/14,11:00:00,14,�k��,5.7,17.5,39.4,0,0.97,14,�k��,11.7,46,,
2020/5/14,12:00:00,14,�k��,7.4,17.4,39,0,0.79,14,�k��,13.8,19,,
2020/5/14,13:00:00,14,�k��,6.6,19.2,31.3,0,0.95,15,�k�k��,14.3,42,,
2020/5/14,14:00:00,14,�k��,6.6,17.7,32,0,0.67,14,�k��,12.3,51,,
2020/5/14,15:00:00,15,�k�k��,5,19.7,27.3,0,0.75,12,��,10.4,40,,
2020/5/14,16:00:00,15,�k�k��,5,19,27.5,0,0.45,15,�k�k��,10.8,33,,
2020/5/14,17:00:00,14,�k��,5.1,18.2,24.9,0,0.35,14,�k��,11.3,40,,
2020/5/14,18:00:00,15,�k�k��,5,17,26.5,0,0.19,1,�k�k��,11.6,12,,
2020/5/14,19:00:00,14,�k��,3.8,15.3,29.6,0,0.03,14,�k��,9.3,19,,
2020/5/14,20:00:00,13,���k��,2.8,13.4,36.4,0,0,13,���k��,5.6,23,,
2020/5/14,21:00:00,13,���k��,3.9,14.4,32.7,0,0,14,�k��,6.6,13,,
2020/5/14,22:00:00,14,�k��,3.9,14.6,34.4,0,0,13,���k��,10.3,17,,
2020/5/14,23:00:00,15,�k�k��,2.9,13.7,40.4,0,0,13,���k��,10.4,17,,
2020/5/14,0:00:00,15,�k�k��,4.5,13.7,45.9,0,0,14,�k��,11.4,57,,
2020/5/15,1:00:00,14,�k��,3.9,13.1,48.8,0,0,16,�k,10.2,18,,
2020/5/15,2:00:00,15,�k�k��,4.1,13.5,49.9,0,0,15,�k�k��,8.6,58,,
2020/5/15,3:00:00,14,�k��,4.1,12.7,53,0,0,15,�k�k��,10.4,40,,
2020/5/15,4:00:00,15,�k�k��,2.2,11.7,58,0,0,15,�k�k��,7.2,22,,
2020/5/15,5:00:00,3,���k��,2.2,9.9,70.8,0,0.06,16,�k,3.1,1,,
2020/5/15,6:00:00,2,�k��,2.2,13.2,55.3,0,0.24,16,�k,4.4,59,,
2020/5/15,7:00:00,2,�k��,3,14.9,52.9,0,0.45,2,�k��,5.1,36,,
2020/5/15,8:00:00,5,���쓌,4.2,12.5,61.5,0,0.65,6,�쓌,6.3,47,,
2020/5/15,9:00:00,7,��쓌,3.5,11.8,67.7,0,0.81,8,��,6.2,8,,
2020/5/15,10:00:00,7,��쓌,4.2,11.8,65.5,0,0.96,7,��쓌,6.3,55,,
2020/5/15,11:00:00,8,��,3,11.9,68.9,0,1.06,6,�쓌,5.3,38,,
2020/5/15,12:00:00,6,�쓌,3.5,12.2,65.1,0,1.09,8,��,7.2,37,,
2020/5/15,13:00:00,8,��,4.8,11.6,63.4,0,1.04,7,��쓌,9.1,46,,
2020/5/15,14:00:00,8,��,4.4,10.9,67.9,0,0.91,8,��,8.4,46,,
2020/5/15,15:00:00,8,��,4.3,10.8,68.7,0,0.74,8,��,8.3,4,,
2020/5/15,16:00:00,8,��,3.3,10.9,66.7,0,0.58,8,��,7.3,1,,
2020/5/15,17:00:00,8,��,3.2,9.7,67.8,0,0.38,7,��쓌,5.8,0,,
2020/5/15,18:00:00,7,��쓌,2.3,8.6,75.2,0,0.15,8,��,4.6,8,,
2020/5/15,19:00:00,6,�쓌,2.5,6.6,88.4,0,0.02,8,��,4.4,10,,
2020/5/15,20:00:00,6,�쓌,2.5,6.8,89.2,0,0,7,��쓌,5.4,49,,
2020/5/15,21:00:00,6,�쓌,2.3,6.6,89.5,0,0,6,�쓌,4.8,25,,
2020/5/15,22:00:00,5,���쓌,3.2,6.5,87,0,0,6,�쓌,5,10,,
2020/5/15,23:00:00,7,��쓌,1.5,6.5,87,0,0,5,���쓌,4.7,3,,
2020/5/15,0:00:00,16,�É�,0.2,6.3,88.8,0,0,7,��쓌,2.8,54,,
2020/5/16,1:00:00,6,�쓌,1,6.1,90.6,0,0,7,��쓌,3,20,,
2020/5/16,2:00:00,6,�쓌,1.4,6,88.7,0,0,5,���쓌,2.4,56,,
2020/5/16,3:00:00,6,�쓌,1.8,5.8,88.6,0,0,6,�쓌,3.7,37,,
2020/5/16,4:00:00,6,�쓌,2,5.6,91.1,0,0,6,�쓌,4.3,49,,
2020/5/16,5:00:00,6,�쓌,2.2,5.7,91,0,0.02,6,�쓌,3.9,49,,
2020/5/16,6:00:00,6,�쓌,2,6,89.3,0,0.08,6,�쓌,4.4,25,,
2020/5/16,7:00:00,4,��,2.2,6,92.1,0,0.1,4,��,3.7,28,,
2020/5/16,8:00:00,6,�쓌,1,6.1,90.6,0,0.13,4,��,2.5,2,,
2020/5/16,9:00:00,5,���쓌,1.7,6.5,92.2,0,0.17,6,�쓌,2.5,56,,
2020/5/16,10:00:00,2,�k��,1.3,6.9,91,0,0.22,3,���k��,3.1,46,,
2020/5/16,11:00:00,2,�k��,2.8,7.4,89.1,0,0.29,2,�k��,4.4,54,,
2020/5/16,12:00:00,2,�k��,2.6,7,91.2,0,0.22,3,���k��,4.5,16,,
2020/5/16,13:00:00,2,�k��,3,7.4,90.1,0,0.25,2,�k��,4.7,17,,
2020/5/16,14:00:00,2,�k��,2.9,8.1,90.7,0,0.22,2,�k��,4.2,21,,
2020/5/16,15:00:00,2,�k��,3.1,8.4,90.4,0,0.24,2,�k��,5,36,,
2020/5/16,16:00:00,2,�k��,2.2,7.9,93.6,0,0.13,2,�k��,3.6,35,,
2020/5/16,17:00:00,4,��,1,7.7,95.8,0,0.06,4,��,2.7,30,,
2020/5/16,18:00:00,1,�k�k��,0.3,7.8,96.4,0,0.04,3,���k��,3.3,29,,
2020/5/16,19:00:00,2,�k��,1.5,7.4,96.5,0,0.01,1,�k�k��,2.4,45,,
2020/5/16,20:00:00,1,�k�k��,2.7,7.3,97.8,0,0,1,�k�k��,3.9,55,,
2020/5/16,21:00:00,1,�k�k��,1.1,7.2,99,0,0,1,�k�k��,5.3,12,,
2020/5/16,22:00:00,16,�k,2.1,7.1,99.6,0,0,16,�k,3.2,56,,
2020/5/16,23:00:00,15,�k�k��,0.9,7.3,99.8,0,0,1,�k�k��,2.2,3,,
2020/5/16,0:00:00,1,�k�k��,1.6,7.2,99.9,0,0,1,�k�k��,3.2,51,,
2020/5/17,1:00:00,11,���쐼,0.5,7.4,100,0,0,12,��,2.5,40,,
2020/5/17,2:00:00,1,�k�k��,0.3,7.6,100,0,0,11,���쐼,2.9,3,,
2020/5/17,3:00:00,14,�k��,1,7.7,100,0,0,12,��,3.7,26,,
2020/5/17,4:00:00,16,�É�,0.2,7.9,99.7,0,0,12,��,3.1,29,,
2020/5/17,5:00:00,14,�k��,0.8,8.4,99.5,0,0.02,12,��,1.9,19,,
2020/5/17,6:00:00,14,�k��,1.4,9.2,97.6,0,0.07,14,�k��,2.5,59,,
2020/5/17,7:00:00,16,�k,1.9,10.8,89.5,0,0.18,15,�k�k��,4.3,13,,
2020/5/17,8:00:00,15,�k�k��,2,12,84.5,0,0.29,15,�k�k��,3.6,57,,
2020/5/17,9:00:00,14,�k��,3.2,11.9,79.7,0,0.25,14,�k��,5.9,40,,
2020/5/17,10:00:00,14,�k��,3.5,13,77,0,0.24,12,��,6.4,11,,
2020/5/17,11:00:00,14,�k��,2.4,14.8,76,0,0.31,14,�k��,5.5,2,,